Regional Weather Roundup
Issued by NWS

Home | Current Version | Previous Version | Graphics & Text | Print | Product List | Glossary On
Versions: 1 2 3 4 5 6 7 8 9 10 11 12 13 14 15 16 17 18 19 20 21 22 23 24 25 26 27 28 29 30 31 32 33 34 35 36 37 38 39 40 41 42 43 44 45 46 47 48 49 50
000
ASUS43 KIND 180809
RWRIN

WEATHER ROUNDUP FOR INDIANA
NATIONAL WEATHER SERVICE INDIANAPOLIS IN
400 AM EDT SAT APR 18 2015

NOTE: "FAIR" INDICATES FEW OR NO CLOUDS BELOW 12,000 FEET WITH NO
SIGNIFICANT WEATHER AND/OR OBSTRUCTIONS TO VISIBILITY.

* - STATION DOES NOT REPORT WEATHER SUCH AS PRECIPITATION OR FOG.

+ - STATION NOT QUALITY CONTROLLED BY THE NATIONAL WEATHER SERVICE.
    USE DATA WITH CAUTION...ESPECIALLY DEWPOINT AND RELATIVE
    HUMIDITY OBSERVATIONS.

INZ001>003-010>013-019-020-180900-
NORTHWEST INDIANA

CITY           SKY/WX    TMP DP  RH WIND       PRES   REMARKS
GARY /AIRPORT/ PTCLDY    63  42  45 SW3       30.02S
KNOX *+        PTCLDY    52  34  50 SW5       30.03R
MICHIGAN CITY+ MOCLDY    59  39  47 SW3       30.03R
MONTICELLO +   CLEAR     51  50  94 CALM      30.03S
RENSSELAER +   CLEAR     54  46  76 SW5       30.04S
VALPARAISO     PTCLDY    57  45  64 SW3       30.03S

$$

LMZ046-743>745-180900-
SOUTHERN LAKE MICHIGAN

STATION/POSITION TIME  TEMP WIND        PRES
                       AIR  DIR/SP/G
                 (UTC) (F)  (DEG/KT/KT) (MB)
BURNS HARBOR     0800   63  210/ 11/ 15 1016.9R
MICHIGAN CITY    0800   65  200/ 10/ 11   N/A
4NW MICH CITY    0800   53                N/A

$$

INZ004-005-014>016-021>024-180900-
NORTH CENTRAL INDIANA

CITY           SKY/WX    TMP DP  RH WIND       PRES   REMARKS
GOSHEN         CLEAR     55  44  66 CALM      30.03S
LOGANSPORT +   PTCLDY    50  46  87 S3        30.05S
PERU/GRISSOM   CLEAR     54  46  73 CALM      30.03F
ROCHESTER +    CLEAR     61  45  55 CALM      30.04S
SOUTH BEND     CLEAR     55  44  66 CALM      30.03S
WARSAW +       CLEAR     52  46  82 CALM      30.04S

$$

INZ006>009-017-018-025>027-180900-
NORTHEAST INDIANA

CITY           SKY/WX    TMP DP  RH WIND       PRES   REMARKS
ANGOLA *+      PTCLDY    48  46  93 CALM      30.03S
AUBURN +       CLEAR     55  43  62 SW5       30.04S
FORT WAYNE     PTCLDY    55  46  71 W7        30.05R
HUNTINGTON +   PTCLDY    54  46  75 SW3       30.04S

$$

INZ028-029-035-036-043>045-051>053-180900-
WEST CENTRAL INDIANA

CITY           SKY/WX    TMP DP  RH WIND       PRES   REMARKS
CRAWFORDSVL +  CLEAR     49  43  78 CALM      30.05S
GREENCASTLE +  CLEAR     52  43  71 CALM      30.05S
LAFAYETTE      CLEAR     51  46  83 CALM      30.04S
TERRE HAUTE    CLEAR     51  47  86 CALM      30.04S

$$

INZ030>032-037>040-046>048-054>057-064-065-180900-
CENTRAL INDIANA

CITY           SKY/WX    TMP DP  RH WIND       PRES   REMARKS
CP ATTERBURY + CLEAR     48  45  87 CALM      30.05F
FISHERS *+     CLEAR     48  48 100 CALM      30.05F
FRANKFORT +    CLEAR     50  48  93 CALM      30.06S
GREENWOOD *+   CLEAR     54  43  66 CALM      30.05F
INDIANAPOLIS   CLEAR     57  45  64 CALM      30.03F
-EAGLE CREEK   CLEAR     56  50  80 CALM      30.04S
KOKOMO *+      CLEAR     52  45  76 S3        30.04F
MARION +       CLEAR     52  44  76 CALM      30.05S
MT COMFORT *+  CLEAR     50  43  76 CALM      30.06R
SHELBYVILLE    CLEAR     52  45  77 NE3       30.05S
ZIONSVILLE +   CLEAR     51  46  82 CALM      30.06S

$$

INZ033-034-041-042-049-050-058-059-180900-
EAST CENTRAL INDIANA

CITY           SKY/WX    TMP DP  RH WIND       PRES   REMARKS
MUNCIE         CLEAR     52  44  74 CALM      30.05S

$$

INZ060-061-067>069-081>083-085>088-180900-
SOUTHWEST INDIANA

CITY           SKY/WX    TMP DP  RH WIND       PRES   REMARKS
EVANSVILLE     CLEAR     58  56  93 CALM      30.01F FOG
HUNTINGBURG *+ CLEAR     57  54  88 CALM      30.02F
WASHINGTON +   CLEAR     53  50  87 CALM      30.02S

$$

INZ062-063-066-070>080-084-089>092-180900-
SOUTH CENTRAL AND SOUTHEAST INDIANA

CITY           SKY/WX    TMP DP  RH WIND       PRES   REMARKS
BEDFORD +      CLEAR     55  48  76 CALM      30.04F
BLOOMINGTON    CLEAR     52  48  86 CALM      30.04F
MADISON *+     CLEAR     52  46  82 CALM      30.06F
NORTH VERNON + CLEAR     50  50 100 NE5       30.05F

$$



USA.gov is the U.S. government's official web portal to all federal, state and local government web resources and services.